Thompson, Ohio, United States (44086)
Lat: 41.69N, Lon: 81.05W
Wx Zone: OHZ013
Local Info
Past Weather Observations for Friday, February 27, 2015

NOTE: This archive is for the closest National Weather Service station to Thompson. Information may differ from the station used for current weather conditions.

Click here for Long-term Archive

Time Weather Temperature Dewpoint Humidity Pressure Winds Precip Visibility
23:53
Clear
-9°F / -23°C -15°F / -26°C 77% 30.66 in
(1038 mb)
Calm - 10SM
22:53
Clear
-6°F / -21°C -11°F / -24°C 77% 30.66 in
(1038 mb)
Calm - 10SM
21:53
Clear
-4°F / -20°C -9°F / -23°C 77% 30.66 in
(1038 mb)
Calm - 10SM
20:53
Clear
-2°F / -19°C -9°F / -23°C 71% 30.63 in
(1037 mb)
Calm - 10SM
19:53
Clear
3°F / -16°C -8°F / -22°C 60% 30.63 in
(1037 mb)
Calm - 10SM
18:53
Clear
9°F / -13°C -6°F / -21°C 51% 30.6 in
(1036 mb)
WNW 4.6 mph
(WNW 7 kph)
- 10SM
17:53
Clear
10°F / -12°C -6°F / -21°C 47% 30.6 in
(1036 mb)
NW 5.8 mph
(NW 9 kph)
- 10SM
16:53
Clear
12°F / -11°C -6°F / -21°C 44% 30.57 in
(1035 mb)
WNW 9.2 mph
(WNW 15 kph)
- 10SM
15:53
Clear
12°F / -11°C -4°F / -20°C 48% 30.57 in
(1035 mb)
W 10.4 mph
(W 17 kph)
- 10SM
14:53
Partly Cloudy
12°F / -11°C -2°F / -19°C 52% 30.57 in
(1035 mb)
Variable 4.6 mph
(Variable 7 kph)
- 10SM
13:53
Partly Cloudy
10°F / -12°C -2°F / -19°C 56% 30.54 in
(1034 mb)
NW 8.1 mph
(NW 13 kph)
- 10SM
12:53
Partly Cloudy
10°F / -12°C -4°F / -20°C 52% 30.54 in
(1034 mb)
NNW 5.8 mph
(NNW 9 kph)
- 10SM
11:53
Partly Cloudy
9°F / -13°C -2°F / -19°C 61% 30.54 in
(1034 mb)
SW 5.8 mph
(SW 9 kph)
- 10SM
11:11
Partly Cloudy
9°F / -13°C -2°F / -19°C 61% 30.54 in
(1034 mb)
Variable 3.5 mph
(Variable 6 kph)
- 10SM
10:53
Mostly Cloudy
7°F / -14°C -2°F / -19°C 66% 30.51 in
(1033 mb)
SSW 4.6 mph
(SSW 7 kph)
- 10SM
10:46
Mostly Cloudy
9°F / -13°C -2°F / -19°C 61% 30.51 in
(1033 mb)
Variable 4.6 mph
(Variable 7 kph)
- 10SM
09:53
Clear
3°F / -16°C -2°F / -19°C 78% 30.51 in
(1033 mb)
W 3.5 mph
(W 6 kph)
- 10SM
08:53
Clear
1°F / -17°C -4°F / -20°C 78% 30.48 in
(1032 mb)
Calm - 10SM
08:06
Partly Cloudy
-8°F / -22°C -15°F / -26°C 70% 30.45 in
(1031 mb)
Calm - 10SM
07:53
Mostly Cloudy
-8°F / -22°C -15°F / -26°C 70% 30.45 in
(1031 mb)
Calm - 10SM
07:51
Mostly Cloudy
-9°F / -23°C -15°F / -26°C 77% 30.45 in
(1031 mb)
Calm - 10SM
06:53
Clear
-8°F / -22°C -15°F / -26°C 70% 30.42 in
(1030 mb)
Calm - 10SM
05:53
Clear
-9°F / -23°C -15°F / -26°C 77% 30.39 in
(1029 mb)
W 3.5 mph
(W 6 kph)
- 10SM
04:53
Clear
-8°F / -22°C -13°F / -25°C 77% 30.36 in
(1028 mb)
NW 4.6 mph
(NW 7 kph)
- 10SM
03:53
Clear
-6°F / -21°C -11°F / -24°C 77% 30.33 in
(1027 mb)
NW 3.5 mph
(NW 6 kph)
- 10SM
02:53
Clear
-6°F / -21°C -8°F / -22°C 92% 30.33 in
(1027 mb)
NW 3.5 mph
(NW 6 kph)
- 10SM
01:53
Partly Cloudy
1°F / -17°C -2°F / -19°C 85% 30.3 in
(1026 mb)
Calm - 10SM
00:53
Overcast
3°F / -16°C °F / -18°C 85% 30.3 in
(1026 mb)
NW 3.5 mph
(NW 6 kph)
- 10SM
Time Weather Temperature Dewpoint Humidity Pressure Winds Precip Visibility


Weather for websites

WeatherForYou.com, LLC is not responsible for any damages or problems caused by this service. Current weather conditions are obtained from the closest station including government and personal stations which may have varying degrees of accuracy. Weather forecasts are derived from the NOAA NDFD. Like all things, this site belongs to Jesus Christ... He just trusts me to maintain it. If you have any questions or comments email webmaster@weatherforyou.com

Copyright © 2015, WeatherForYou.com LLC. All rights reserved.